Welcome to the New NWS' Forecast!
Most changes are behind the scenes, but click here for differences you might notice.
Latest weather observations around

West Memphis, West Memphis Municipal Airport (KAWM)

Using English Units (Switch to International System of Units)
Date/ Time (CDT) Wind (mph) Vis. (mi) Weather Sky Cond. Temp (°F) Rel. Humidity Wind Chill (°F) Heat Index (°F) Pressure Precip. (in)
Air Dwpt 6 hour Altimeter (inHg) Sea level (inHg) 1 hr 3 hr 6 hr
Max Min
May 24 21:53 Calm 10 Mostly Clear FEW050 56 52     87%     29.65 29.64 0 0  
May 24 20:53 Calm 10 Light Rain SCT055 BKN080 BKN100 59 52     78%     29.62 29.61 0    
May 24 19:53 Calm 10 Clear CLR 60 53     78%     29.61 29.6      
May 24 18:53 6 10 Mostly Clear FEW100 63 54     72%     29.6 29.59     0
May 24 17:53 6 10 Mostly Cloudy SCT080 BKN120 61 53     75%     29.6 29.59 0    
May 24 17:06 6 4 Light Rain FEW021 BKN055 OVC070 58 51     78%     29.61   0    
May 24 16:53 WNW 14 2.5 Rain BKN045 BKN055 OVC070 58 53     84%     29.61 29.6 0    
May 24 15:53 WNW 9 10 Mostly Cloudy SCT044 BKN080 BKN110 67 51     57%     29.58 29.57   0  
May 24 13:53 NNW 8 10 Cloudy SCT047 BKN060 OVC100 65 53     65%     29.59 29.58 0    
May 24 12:53 NNW 10 10 Mostly Cloudy FEW043 SCT055 BKN100 68 53     59%     29.59 29.58      
May 24 09:53 6 10 Mostly Clear FEW019 FEW060 65 57     76%     29.59 29.58      
May 24 08:53 6 10 Partly Cloudy SCT014 SCT022 SCT034 63 59     87%     29.58 29.57      
May 24 08:15 WNW 8 10 Mostly Cloudy BKN010 BKN015 62 60     93%     29.58        
May 24 07:53 NW 7 10 Clear CLR 61 60     97%     29.58 29.57      
May 24 06:53 5 6 Fog/Mist FEW006 SCT023 OVC120 60 60     100%     29.57 29.56 0   0
May 24 06:49 5 6 Fog/Mist FEW008 SCT019 OVC120 61 61     100%     29.57   0    
May 24 06:39 Calm 7 Cloudy FEW010 BKN020 OVC120 59 59     100%     29.57   0    
May 24 05:53 N 3 9 Light Rain BKN075 OVC100 59 58     96%     29.57 29.56 0    
May 24 04:53 N 5 10 Light Rain SCT090 OVC110 59 59     100%     29.59 29.58 0    
May 24 04:28 N 8 9 Light Rain SCT012 OVC090 60 59     96%     29.6   0    
May 24 04:07 N 9 6 Light Rain and Fog/Mist SCT008 BKN014 OVC060 60 60     100%     29.6   0    
May 24 03:58 N 10 5 Rain and Fog/Mist BKN011 BKN024 OVC050 60 60     100%     29.6   0    
May 24 03:53 N 7 5 Light Rain and Fog/Mist FEW008 BKN037 OVC060 60 60     100%     29.6 29.59 0 0  
May 24 03:05 NNW 8 7 Light Rain FEW009 BKN049 OVC085 61 61     100%     29.61   0    
May 24 02:53 N 5 6 Light Rain and Fog/Mist FEW070 OVC090 61 61     100%     29.61 29.6 0    
May 24 01:53 3 4 Light Rain and Fog/Mist FEW065 OVC080 61 61     100%     29.64 29.63 0    
May 24 00:53 Calm 10 Light Rain BKN100 OVC120 61 61     100%     29.65 29.64 0   0
May 23 23:53 Calm 9 Light Rain OVC085 61 60     97%     29.67 29.66 0    
May 23 22:53 N 5 10 Light Rain FEW055 SCT075 OVC095 63 58     84%     29.67 29.66 0    
May 23 21:53 6 10 Cloudy BKN065 OVC080 63 56     78%     29.69 29.68      
May 23 20:53 N 10 10 Cloudy SCT049 BKN060 OVC095 64 53     67%     29.68 29.67      
May 23 20:32 NNW 14 10 Cloudy SCT040 BKN050 OVC060 66 52     61%     29.69        
May 23 19:53 3 10 Mostly Clear FEW120 71 58     63%   71 29.67 29.66      
May 23 18:53 SW 5 10 Clear CLR 72 60     66%   72 29.65 29.64     0
May 23 17:53 6 10 Partly Cloudy FEW050 SCT100 SCT120 72 60     66%   72 29.67 29.66 0    
May 23 16:53 WNW 6 10 Cloudy BKN065 OVC080 76 54     47%   75 29.68 29.67      
May 23 15:53 7 10 Partly Cloudy FEW090 SCT120 77 52     42%   76 29.7 29.69      
May 23 14:53 NNW 9 10 Mostly Clear FEW055 78 54     43%   78 29.71 29.7      
May 23 13:53 SSW 3 10 Mostly Clear FEW100 75 54     48%   74 29.73 29.72      
May 23 12:53 6 10 Mostly Clear FEW050 75 54     48%   74 29.74 29.73      
May 23 11:53 NW 7 10 Mostly Cloudy FEW039 BKN055 73 58     59%   73 29.76 29.75      
May 23 10:53 SW 7 10 Mostly Cloudy FEW065 BKN080 BKN120 71 59     66%   71 29.78 29.77      
May 23 09:53 6 10 Mostly Cloudy BKN070 69 57     65%     29.79 29.78      
May 23 08:53 6 10 Mostly Clear FEW060 68 57     68%     29.79 29.78      
May 23 07:53 NNW 6 10 Mostly Cloudy BKN070 68 58     70%     29.81 29.8      
May 23 06:53 Calm 10 Partly Cloudy SCT100 62 61     96%     29.8 29.79      
May 23 05:53 Calm 10 Mostly Cloudy BKN090 63 61     93%     29.81 29.8      
May 23 04:53 W 3 10 Cloudy OVC090 62 62     100%     29.82 29.81      
May 23 03:53 Calm 10 Cloudy OVC085 63 62     97%     29.83 29.82      
May 23 02:53 Calm 10 Cloudy OVC090 63 62     97%     29.84 29.83      
May 23 01:53 Calm 10 Cloudy OVC095 63 61     93%     29.86 29.85      
May 23 00:53 Calm 10 Cloudy OVC090 64 62     93%     29.89 29.88     0
May 22 23:53 Calm 10 Cloudy BKN090 OVC120 65 60     84%     29.9 29.89      
May 22 22:53 Calm 10 Cloudy OVC090 66 60     81%     29.92 29.91      
May 22 21:53 Calm 10 Cloudy OVC110 65 60     84%     29.93 29.92 0 0  
May 22 20:53 Calm 10 Cloudy OVC100 66 59     78%     29.94 29.93      
May 22 19:53 N 3 10 Cloudy OVC100 66 61     84%     29.94 29.93      
May 22 18:53 SSW 3 10 Cloudy OVC100 69 58     68%     29.95 29.94      
May 22 17:53 Calm 10 Cloudy OVC110 71 57     61%   71 29.95 29.94      
May 22 16:53 ENE 6 10 Mostly Cloudy BKN120 72 54     53%   71 29.96 29.95      
May 22 15:53 Calm 10 Partly Cloudy SCT120 73 54     51%   72 29.99 29.98      
May 22 14:53 ESE 5 10 Clear CLR 72 54     53%   71 30.02 30.01      
May 22 13:53 SSE 5 10 Clear CLR 72 53     51%   71 30.05 30.04      
May 22 12:53 E 8 10 Clear CLR 71 52     51%   70 30.07 30.06      
May 22 11:53 ENE 13 10 Clear CLR 71 53     53%   70 30.08 30.07      
May 22 10:53 ENE 11 10 Clear CLR 69 51     53%     30.11 30.1      
May 22 09:53 E 10 10 Clear CLR 68 49     50%     30.14 30.13      
May 22 08:53 E 14 10 Clear CLR 67 52     59%     30.14 30.13      
May 22 06:53 ENE 10 10 Clear CLR 62 52     70%     30.12 30.11      
May 22 05:53 NE 5 10 Clear CLR 61 54     78%     30.12 30.11      
May 22 04:53 N 5 10 Clear CLR 60 54     80%     30.11 30.1      
May 22 03:53 N 6 10 Clear CLR 61 54     78%     30.11 30.1      
May 22 02:53 N 7 10 Clear CLR 61 54     78%     30.1 30.09      
May 22 01:53 N 6 10 Clear CLR 61 54     78%     30.09 30.08      
May 22 00:53 NNW 6 10 Clear CLR 61 56     83%     30.1 30.09      
May 21 23:53 NNW 3 10 Clear CLR 61 57     87%     30.11 30.1      
May 21 22:53 Calm 10 Clear CLR 61 57     87%     30.11 30.1      
May 21 21:53 Calm 10 Clear CLR 62 57     84%     30.11 30.1      
May 21 20:53 Calm 10 Clear CLR 68 56     65%     30.09 30.08      
May 21 19:53 NNW 6 10 Clear CLR 71 55     57%   71 30.09 30.08      
May 21 18:53 7 10 Clear CLR 75 52     45%   74 30.07 30.06      
May 21 17:53 3 10 Clear CLR 75 56     52%   75 30.05 30.04      
May 21 16:53 NNW 9 10 Mostly Clear FEW047 77 57     50%   77 30.04 30.03      
May 21 15:53 NW 8 10 Clear CLR 76 55     48%   75 30.06 30.05      
May 21 14:53 6 10 Clear CLR 77 55     47%   77 30.08 30.06      
May 21 13:53 NW 9 10 Clear CLR 76 54     47%   75 30.08 30.07      
May 21 12:53 NNE 9 10 Partly Cloudy SCT050 74 56     53%   74 30.08 30.06      
May 21 10:53 NNW 7 10 Cloudy OVC035 70 57     63%     30.11 30.1      
May 21 09:53 N 8 10 Cloudy OVC034 69 61     75%     30.1 30.09      
May 21 09:03 N 11 10 Mostly Cloudy BKN030 69 61     75%     30.08        
May 21 08:53 NNW 8 10 Mostly Cloudy BKN029 68 62     81%     30.08 30.07      
May 21 07:53 N 8 10 Cloudy OVC028 67 62     84%     30.07 30.06      
May 21 07:24 5 10 Mostly Cloudy BKN026 67 62     84%     30.07        
May 21 07:14 6 10 Partly Cloudy SCT026 SCT065 67 62     84%     30.07        
May 21 06:53 5 10 Mostly Cloudy BKN028 BKN065 67 63     87%     30.06 30.05      
May 21 05:53 5 10 Cloudy BKN020 OVC026 68 65     90%     30.04 30.03      
May 21 05:24 3 10 Cloudy FEW010 OVC020 69 68     96%     30.03        
May 21 05:17 Calm 10 Cloudy FEW008 BKN013 OVC019 69 68     96%     30.03        
May 21 04:53 Calm 10 Cloudy BKN011 OVC014 69 69     100%     30.02 30.01      
May 21 04:26 Calm 7 Cloudy BKN012 OVC018 69 69     100%     30.01        
May 21 03:57 SSW 6 3 Fog/Mist BKN022 67 67     100%     30.01        
May 21 03:53 S 5 2.5 Fog/Mist SCT022 67 67     100%     30.01 29.99      
May 21 03:33 SSE 5 5 Fog/Mist CLR 66 66     100%     30        
May 21 03:14 Calm 2.5 Fog/Mist CLR 66 66     100%     29.99        
May 21 03:12 Calm 1 Fog/Mist VV002 67 67     100%     29.99        
May 21 03:06 Calm 0.75 Fog/Mist FEW002 FEW090 67 67     100%     29.99        
May 21 03:03 Calm 1.5 Fog/Mist FEW090 66 66     100%     29.99        
May 21 02:53 Calm 6 Fog/Mist SCT090 67 67     100%     29.99 29.98      
May 21 01:53 Calm 8 Mostly Cloudy BKN080 67 67     100%     29.99 29.98      
May 21 00:53 W 3 10 Clear CLR 68 68     100%     29.98 29.97      
May 20 23:53 SSE 5 10 Clear CLR 67 67     100%     29.98 29.97      
May 20 22:53 Calm 9 Clear CLR 68 68     100%     29.97 29.96      
May 20 21:53 Calm 10 Clear CLR 71 70     96%   72 29.96 29.96      
May 20 20:53 WNW 3 10 Cloudy SCT080 OVC100 71 71     100%   73 29.94 29.93      
May 20 19:53 SSW 3 10 Partly Cloudy SCT110 73 70     90%   74 29.92 29.91      
May 20 18:53 SSW 5 10 Partly Cloudy SCT095 75 69     82%   76 29.93 29.92     0
May 20 16:53 SE 9 10 Mostly Clear FEW120 77 67     71%   78 29.88 29.86      
May 20 15:53 SE 9 10 Clear CLR 77 64     64%   77 29.9 29.88   0  
May 20 13:53 E 7 10 Light Rain FEW030 BKN075 OVC110 73 67     81%   74 29.94 29.93 0    
May 20 12:53 NE 7 10 Cloudy OVC045 73 66     79%   74 30 29.99 0   0
May 20 11:53 N 8 4 Heavy Rain and Fog/Mist BKN039 OVC050 67 65     93%     30.01 30 0    
May 20 10:53 N 10 10 Cloudy OVC030 67 65     93%     30.02 30.01 0    
May 20 10:50 N 10 10 Light Rain OVC030 66 64     94%     30.02   0    
May 20 09:53 N 10 10 Light Rain OVC023 67 65     93%     30 29.99 0 0  
May 20 08:53 N 10 10 Cloudy OVC018 68 65     90%     29.98 29.97      
May 20 08:30 NNE 10 10 Cloudy OVC016 68 65     90%     29.98        
May 20 07:53   10 Cloudy BKN014 OVC055 68 66     93%     29.99 29.97      
May 20 07:51 7 10 Cloudy BKN014 OVC055 70 66     88%     29.99        
May 20 06:53 SSW 3 9 Cloudy SCT050 BKN090 OVC110 74 73     97%   76 29.96 29.94     0
May 20 05:53 S 9 10 Cloudy OVC110 74 73     97%   76 29.92 29.91      
May 20 04:53 S 14 10 Cloudy FEW065 BKN090 OVC110 75 73     94%   77 29.89 29.88 0    
May 20 03:53 S 16 10 Cloudy SCT036 BKN075 OVC100 76 73     91%   77 29.89 29.87 0 0  
May 20 02:53 S 14 10 Partly Cloudy SCT095 76 72     88%   77 29.87 29.86      
May 20 01:53 S 13 10 Mostly Clear FEW100 75 72     90%   76 29.88 29.87      
May 20 00:53 S 7 10 Cloudy OVC100 75 73     94%   77 29.9 29.89      
May 19 23:53 S 8 10 Mostly Cloudy BKN100 75 72     90%   76 29.91 29.89      
May 19 22:53 SSE 9 10 Clear CLR 76 73     91%   77 29.9 29.88      
May 19 21:53 SE 9 10 Clear CLR 75 74     96%   77 29.89 29.88      
May 19 20:53 ESE 7 10 Clear   75 73     94%   77 29.9 29.89      
May 19 19:53 E 5 10 Clear CLR 75 72     90%   76 29.9 29.89      
May 19 18:53 Calm 10 Clear CLR 75 71     88%   76 29.9 29.88     0
May 19 17:53 Calm 10 Partly Cloudy FEW080 SCT110 74 73     97%   76 29.93 29.91      
May 19 16:53 SSE 7 10 Thunderstorms CLR 75 72     90%   76 29.92 29.91      
May 19 15:53 SE 8 10 Mostly Cloudy FEW070 BKN090 BKN110 74 72     94%   75 29.9 29.89 0 0  
May 19 15:29 S 13 5 Light Rain and Fog/Mist FEW065 BKN090 OVC110 75 71     88%   76 29.95   0    
May 19 15:00 S 8 8 Light Rain FEW034 SCT085 OVC100 77 74     90%   79 29.93   0    
May 19 14:53 SSE 7 9 Light Rain SCT036 SCT070 OVC100 78 73     85%   80 29.92 29.91 0    
May 19 14:45 SE 7 10 Light Rain SCT036 BKN070 OVC110 78 73     85%   80 29.93   0    
May 19 14:19 ENE 6 10 Thunderstorms and Rain FEW032 SCT043 BKN060 79 73     82%   82 29.93   0    
May 19 13:53 S 6 5 Light Rain FEW020 BKN031 OVC070 78 72     82%   79 29.94 29.93 0    
May 19 13:33 Calm 5 Rain SCT020 BKN033 OVC044 81 75     82%   87 29.94   0    
May 19 13:25 5 8 Mostly Cloudy FEW020 BKN034 BKN044 81 75     82%   87 29.93        
Notice The following observation data may not be complete
May 19 13:04   10 Thunderstorms FEW033          %              
May 19 12:53 ENE 3 10 Mostly Clear FEW031 83 76     79%   91 29.94 29.93     0
May 19 11:53 5 10 Mostly Clear FEW025 82 75     79%   89 29.98 29.96      
May 19 11:11 SSW 10 10 Partly Cloudy FEW020 SCT090 81 74     79%   86 29.98        
May 19 10:53 SSW 9 10 Mostly Cloudy BKN018 BKN090 81 75     82%   87 29.98 29.96 0    
May 19 09:53 S 7 10 Cloudy BKN018 BKN022 OVC031 79 75     88%   83 29.98 29.96      
May 19 09:07 SSW 10 10 Mostly Cloudy SCT012 BKN028 78 75     90%   80 29.96        
May 19 08:53 SSW 8 10 Mostly Cloudy BKN012 77 75     94%   79 29.96 29.95      
May 19 08:25 SSW 9 10 Mostly Cloudy BKN013 77 74     90%   79 29.96        
May 19 07:53 S 15 10 Clear CLR 76 74     94%   78 29.95 29.93      
May 19 06:53 S 9 10 Cloudy FEW015 BKN042 OVC049 74 73     97%   76 29.96 29.94 0   0
May 19 06:26 SSE 6 3 Light Rain and Fog/Mist SCT014 BKN027 OVC085 73 73     100%   75 29.94   0    
May 19 06:23 S 6 1.5 Light Rain and Fog/Mist SCT012 BKN027 OVC090 73 73     100%   75 29.94   0    
May 19 06:09 S 7 1.75 Heavy Rain and Fog/Mist SCT012 BKN021 OVC028 73 73     100%   75 29.94   0    
May 19 06:00 3 10 Light Rain BKN010 BKN027 OVC055 73 73     100%   75 29.95   0    
May 19 05:53 3 10 Thunderstorms and Rain FEW012 BKN022 OVC100 74 73     97%   76 29.94 29.93 0    
May 19 05:46 SSW 8 3 Thunderstorms and Rain and Fog/Mist SCT027 BKN041 BKN060 74 73     97%   76 29.94   0    
May 19 05:39 S 14 1.75 Thunderstorms and Heavy Rain and Fog/Mist SCT032 BKN060 BKN100 74 72     94%   75 29.94   0    
May 19 05:28 S 8 10 Thunderstorms FEW030 BKN100 75 72     90%   76 29.94        
May 19 04:53 SSW 11 10 Clear CLR 75 72     90%   76 29.94 29.93      
May 19 03:53 S 8 10 Clear   75 72     90%   76 29.95 29.93      
May 19 02:53 S 9 10 Mostly Clear FEW090 75 71     88%   76 29.92 29.91      
May 19 01:53 S 10 10 Clear CLR 75 71     88%   76 29.91 29.9      
May 19 00:53 SSE 8 10 Clear CLR 74 70     87%   75 29.92 29.91      
May 18 23:53 S 9 10 Clear CLR 75 69     82%   76 29.92 29.9      
May 18 22:53 SSE 8 10 Clear CLR 74 65     74%   74 29.89 29.88      
May 18 21:53 SSE 8 10 Clear CLR 73 65     76%   74 29.88 29.87      
May 18 19:53 SSE 9 10 Clear CLR 79 67     67%   80 29.87 29.86      
May 18 18:53 SSE 16 10 Clear CLR 84 67     57%   87 29.87 29.86      
May 18 17:53 SSE 15 10 Clear CLR 86 67     53%   89 29.89 29.87      
May 18 16:53 SSE 18 10 Clear CLR 87 65     48%   89 29.9 29.88      
May 18 15:53 S 14 10 Mostly Clear FEW050 86 65     50%   88 29.9 29.89      
May 18 14:53 S 15 10 Mostly Clear FEW100 88 65     47%   90 29.91 29.89      
May 18 13:53 SSW 13 10 Clear CLR 87 67     51%   90 29.93 29.92      
May 18 12:53 S 16 10 Mostly Cloudy FEW036 BKN100 85 68     57%   88 29.95 29.93      
May 18 11:53 SSW 17 10 Partly Cloudy FEW028 SCT100 83 69     63%   87 29.96 29.94      
May 18 10:53 S 24 10 Mostly Clear and Windy FEW110 82 69     65%   85 29.97 29.95      
May 18 09:53 S 16 10 Mostly Cloudy FEW017 BKN110 78 71     79%   79 29.96 29.95      
May 18 08:53 S 17 10 Mostly Cloudy BKN110 76 70     82%   77 29.96 29.95      
May 18 07:53 S 16 10 Cloudy FEW020 BKN080 OVC100 74 69     85%   75 29.95 29.94      
May 18 06:53 S 13 10 Mostly Cloudy BKN095 73 68     84%   74 29.93 29.92      
May 18 05:53 S 14 10 Cloudy BKN075 OVC100 73 67     81%   74 29.92 29.9      
May 18 04:53 S 13 10 Cloudy OVC060 74 67     79%   75 29.9 29.88      
May 18 03:53 S 15 10 Cloudy FEW060 BKN080 OVC095 74 66     76%   75 29.88 29.86      
May 18 02:53 S 16 10 Cloudy OVC080 75 66     74%   76 29.87 29.85      
May 18 01:53 S 17 10 Cloudy OVC070 76 65     69%   76 29.87 29.85      
May 18 00:53 S 16 10 Cloudy OVC070 77 64     64%   77 29.87 29.85      
May 17 23:53 S 13 10 Clear   78 65     64%   79 29.86 29.85      
May 17 22:53 S 13 10 Mostly Cloudy BKN070 BKN110 78 65     64%   79 29.86 29.85      
May 17 21:53 SSE 10 10 Cloudy BKN070 OVC085 78 66     67%   79 29.85 29.84      
May 17 20:53 SSE 10 10 Cloudy FEW060 OVC070 78 66     67%   79 29.84 29.83      
May 17 20:18 S 9 10 Mostly Cloudy BKN075 BKN110 78 65     64%   79 29.83        
May 17 19:33 S 9 10 Mostly Cloudy SCT060 BKN095 BKN110 80 65     60%   82 29.83        
May 17 19:18 SSW 9 10 Mostly Clear FEW100 81 64     56%   83 29.82        
May 17 18:53 S 13 10 Mostly Clear FEW080 81 65     58%   83 29.8 29.78      
May 17 17:53 S 24 10 Clear and Windy CLR 83 63     51%   84 29.8 29.78      
May 17 16:53 SSW 24 10 Mostly Clear and Windy FEW060 84 64     51%   85 29.81 29.8      
May 17 15:53 S 29 10 Partly Cloudy and Breezy SCT060 86 62     45%   87 29.82 29.8      
May 17 14:53 S 31 10 Clear and Breezy CLR 87 62     43%   88 29.81 29.8      
May 17 13:53 S 31 10 Mostly Clear and Breezy FEW023 87 61     42%   87 29.82 29.8      
May 17 12:53 S 29 10 Clear and Breezy CLR 85 63     48%   86 29.85 29.83 0   0
May 17 11:53   10 Light Rain CLR 82 64     55%   84 29.86 29.85 0    
May 17 10:53 S 22 10 Clear and Windy CLR 80 65     60%   82 29.9 29.89      
May 17 09:53 SW 10 10 Clear CLR 77 65     66%   78 29.93 29.91      
May 17 08:53 SSW 11 10 Clear CLR 74 66     76%   75 29.94 29.93      
May 17 07:53 SSW 9 10 Clear CLR 71 64     79%   72 29.93 29.92      
May 17 06:53 SSW 11 10 Clear CLR 71 63     76%   71 29.89 29.87      
May 17 05:53 S 14 10 Clear CLR 69 63     81%     29.84 29.83      
May 17 04:53 S 14 10 Clear CLR 69 63     81%     29.83 29.82      
May 17 03:53 S 13 10 Clear CLR 70 63     78%     29.83 29.81      
May 17 02:53 S 14 10 Clear CLR 72 63     73%   72 29.82 29.81      
May 17 01:53 S 11 10 Clear CLR 72 64     76%   72 29.82 29.8      
May 17 00:53 S 11 10 Clear CLR 73 64     73%   73 29.83 29.82      
May 16 23:53 S 9 10 Mostly Clear FEW055 74 65     74%   74 29.83 29.82      
May 16 22:53 S 13 10 Mostly Clear FEW060 76 64     67%   76 29.84 29.83      
May 16 21:53 S 9 10 Clear CLR 75 65     71%   76 29.85 29.84      
May 16 20:53 SSE 8 10 Clear CLR 76 64     67%   76 29.85 29.84      
May 16 19:53 SSE 10 10 Clear CLR 80 64     58%   82 29.86 29.84      
May 16 18:53 S 14 10 Clear CLR 83 64     53%   84 29.86 29.85 0   0
May 16 17:53 S 20 10 Partly Cloudy and Windy SCT060 85 63     48%   86 29.88 29.86      
May 16 16:53 S 15 10 Clear CLR 87 62     43%   88 29.89 29.88      
May 16 15:53 SSW 13 10 Mostly Clear FEW060 87 63     45%   88 29.9 29.89      
May 16 14:53 S 15 10 Mostly Clear FEW060 87 64     46%   88 29.92 29.91      
May 16 13:53 S 16 10 Mostly Clear FEW055 87 63     45%   88 29.94 29.93      
May 16 12:53 SSW 9 10 Clear CLR 85 64     50%   86 29.96 29.94      
May 16 11:53 S 15 10 Cloudy OVC060 84 64     51%   85 29.98 29.97      
May 16 10:53 S 9 10 Cloudy OVC060 81 67     62%   83 29.99 29.98      
May 16 09:53 SSW 9 10 Mostly Cloudy BKN055 78 65     64%   79 29.98 29.97      
May 16 08:53 S 8 10 Mostly Cloudy BKN055 75 65     71%   76 29.98 29.97      
May 16 07:53 S 9 10 Mostly Clear FEW055 71 64     79%   72 29.97 29.96      
May 16 06:53 S 6 10 Cloudy OVC055 67 64     90%     29.97 29.95      
May 16 05:53 SSE 3 10 Cloudy OVC055 66 62     87%     29.96 29.94      
May 16 04:53 SSE 5 10 Mostly Cloudy BKN055 65 61     87%     29.95 29.94      
May 16 03:53 SSE 5 10 Clear CLR 65 61     87%     29.94 29.93      
May 16 02:53 SSE 3 10 Clear CLR 66 62     87%     29.93 29.92      
May 16 01:53 Calm 10 Clear CLR 65 61     87%     29.93 29.92      
May 16 00:53 S 3 10 Clear CLR 66 62     87%     29.93 29.92      
May 15 23:53 Calm 10 Clear CLR 67 61     81%     29.94 29.92      
May 15 22:53 SSE 3 10 Clear CLR 69 61     75%     29.95 29.93      
May 15 21:53 Calm 10 Clear CLR 70 62     76%     29.95 29.93      
May 15 20:53 Calm 10 Clear CLR 72 62     71%   72 29.94 29.93      
May 15 19:53 SSE 6 10 Clear CLR 76 62     62%   76 29.94 29.92      
May 15 18:53 SW 5 10 Clear   81 60     49%   82 29.94 29.93      
May 15 17:53 SSW 9 10 Clear CLR 82 59     46%   82 29.94 29.93      
May 15 16:53 SSE 7 10 Clear CLR 82 60     47%   82 29.94 29.93      
May 15 15:53 S 9 10 Clear CLR 82 59     46%   82 29.96 29.95      
May 15 14:53 6 10 Clear CLR 82 60     47%   82 29.97 29.96      
May 15 13:53 S 15 10 Mostly Clear FEW049 82 61     49%   83 29.99 29.98      
May 15 12:53 S 10 10 Clear CLR 81 60     49%   82 30.01 29.99      
May 15 11:53 S 9 10 Clear CLR 79 59     50%   79 30.01 30      
May 15 10:53 3 10 Clear CLR 78 59     52%   78 30.01 30      
May 15 09:53 S 7 10 Clear CLR 77 60     56%   77 30.01 29.99      
May 15 08:53 SSE 5 10 Clear CLR 73 62     68%   73 30.01 30      
May 15 07:53 SSE 6 10 Clear CLR 67 63     87%     30.01 30      
May 15 06:53 SSE 5 6 Fog/Mist CLR 61 61     100%     30 29.99      
May 15 05:53 SSE 3 4 Fog/Mist CLR 59 59     100%     29.98 29.97      
May 15 04:53 Calm 8 Clear CLR 58 58     100%     29.97 29.96      
May 15 03:53 Calm 10 Clear CLR 60 59     96%     29.97 29.96      
May 15 02:53 Calm 10 Clear CLR 58 57     97%     29.96 29.95      
May 15 01:53 Calm 10 Clear CLR 60 58     93%     29.95 29.94      
May 15 00:53 S 3 10 Clear CLR 62 57     84%     29.95 29.94      
May 14 23:53 SSE 3 10 Clear CLR 63 58     84%     29.95 29.94      
May 14 22:53 S 3 10 Clear CLR 63 57     81%     29.95 29.94      
May 14 21:53 WSW 3 9 Clear CLR 69 55     61%     29.94 29.93      
May 14 19:53 SW 5 9 Clear CLR 74 56     53%   74 29.92 29.91      
May 14 18:53 WSW 5 10 Clear CLR 77 54     45%   77 29.91 29.9      
May 14 17:53 WSW 6 10 Clear CLR 79 54     42%   79 29.92 29.91      
May 14 16:53 6 10 Clear CLR 80 55     42%   80 29.93 29.92      
May 14 15:53 Calm 10 Clear CLR 79 53     41%   78 29.94 29.93      
May 14 14:53 Calm 10 Clear CLR 80 54     41%   80 29.96 29.95      
May 14 13:53 6 10 Clear CLR 78 52     40%   77 29.98 29.96      
May 14 12:53 WSW 7 10 Clear CLR 77 53     43%   76 30 29.99      
May 14 11:53 SW 7 10 Clear CLR 75 52     45%   74 30.02 30.01      
May 14 10:53 SSW 7 10 Clear CLR 74 53     48%   73 30.03 30.02      
May 14 09:53 S 8 10 Clear CLR 73 56     55%   73 30.03 30.02      
May 14 08:53 S 5 10 Clear CLR 68 58     70%     30.03 30.02      
May 14 07:53 Calm 6 Fog/Mist CLR 64 61     90%     30.02 30.01      
May 14 06:53 Calm 6 Fog/Mist CLR 57 57     100%     30 29.99      
May 14 06:40 Calm 5 Fog/Mist CLR 55 55     100%     29.99        
May 14 06:01 Calm 2 Fog/Mist CLR 54 54     100%     29.97        
May 14 05:53 Calm 3 Fog/Mist CLR 55 55     100%     29.97 29.96      
May 14 04:53 Calm 4 Fog/Mist CLR 54 54     100%     29.94 29.93      
May 14 03:53 Calm 6 Fog/Mist CLR 56 56     100%     29.93 29.92      
May 14 02:53 Calm 8 Clear CLR 56 56     100%     29.92 29.91      
May 14 01:53 Calm 6 Fog/Mist CLR 56 56     100%     29.93 29.92      
May 14 00:53 Calm 10 Clear CLR 57 57     100%     29.93 29.92      
May 13 23:53 Calm 10 Clear CLR 58 57     97%     29.93 29.92      
May 13 22:53 Calm 10 Clear CLR 60 58     93%     29.92 29.91      
May 13 21:53 Calm 10 Clear CLR 62 57     84%     29.91 29.9      
May 13 20:53 NNE 5 10 Clear CLR 67 54     63%     29.9 29.89      
May 13 19:53 NNE 5 10 Clear CLR 69 53     57%     29.9 29.89      
May 13 18:53 NNE 13 10 Clear CLR 74 52     46%   73 29.89 29.88